Weather History for PAIK - October, 2011

Change the Weather History Date:

Monday, October 31, 2011

  Actual Average Record
Temperature  
Mean Temperature 1 °F -  
Max Temperature 6 °F - - ()
Min Temperature -4 °F - - ()
Degree Days  
Heating Degree Days 64    
Moisture  
Dew Point 0 °F    
Average Humidity 88    
Maximum Humidity 92    
Minimum Humidity 78    
Precipitation  
Precipitation 0.00 in - - ()
Sea Level Pressure  
Sea Level Pressure 29.93 in    
Wind  
Wind Speed 2 mph (East)    
Max Wind Speed 5 mph    
Max Gust Speed -    
Visibility 7 miles    
Events Snow    
T = Trace of Precipitation, MM = Missing Value Source: NWS Daily Summary

Daily Weather History Graph

Daily Weather History Graph

Search for Another Location

Airport or City:

Trip Planner

Search our weather history database for the weather conditions in past years. The results will help you decide how hot, cold, wet, or windy it might be!

Date:

Astronomy

Oct. 31, 2011 Rise Set
Actual Time 10:40 AM AKDT 6:09 PM AKDT
Civil Twilight 9:39 AM AKDT 7:09 PM AKDT
Nautical Twilight 8:35 AM AKDT 8:13 PM AKDT
Astronomical Twilight 7:33 AM AKDT 9:14 PM AKDT
Moon 5:07 PM AKDT (10/31) 9:53 PM AKDT (10/31)
Length of Visible Light 9h 30m
Length of Day
7h 28m
Waxing Crescent, 31% of the Moon is Illuminated
Oct 31
Waxing Crescent
Nov 2
First Quarter
Nov 10
Full
Nov 18
Last Quarter
Nov 24
New

Hourly Weather History & Observations

Time (AKDT) Temp. Windchill Dew Point Humidity Pressure Visibility Wind Dir Wind Speed Gust Speed Precip Events Conditions
12:01 AM 3.0 °F -4.4 °F -2.0 °F 80% 29.88 in 10.0 mi North 3.5 mph - N/A   Clear
1:01 AM -0.0 °F - -5.1 °F 79% 29.90 in 10.0 mi Calm Calm - N/A   Clear
2:01 AM -0.9 °F -8.9 °F -4.0 °F 87% 29.91 in 10.0 mi NE 3.5 mph - N/A   Clear
3:01 AM -0.9 °F -8.9 °F -4.0 °F 87% 29.91 in 10.0 mi NNW 3.5 mph - N/A   Clear
4:01 AM -0.9 °F - -4.0 °F 87% 29.92 in 10.0 mi Calm Calm - N/A   Clear
5:01 AM -4.0 °F -14.6 °F -7.1 °F 87% 29.93 in 10.0 mi NE 4.6 mph - N/A   Clear
6:01 AM -2.2 °F - -5.8 °F 85% 29.80 in 10.0 mi Calm Calm - N/A   Mostly Cloudy
7:01 AM -2.9 °F - -6.0 °F 87% 29.94 in 10.0 mi Calm Calm - N/A   Overcast
7:41 AM -0.4 °F - -5.8 °F 78% 29.81 in 10.0 mi Calm Calm - N/A   Overcast
8:01 AM -0.9 °F -11.0 °F -4.0 °F 87% 29.95 in 10.0 mi East 4.6 mph - N/A   Overcast
8:29 AM -0.4 °F - -4.0 °F 85% 29.81 in 9.0 mi Calm Calm - 0.00 in Snow Light Snow
9:01 AM -0.0 °F - -4.0 °F 83% 29.96 in 10.0 mi Calm Calm - 0.00 in   Overcast
9:29 AM -0.4 °F - -2.2 °F 92% 29.83 in 10.0 mi Calm Calm - 0.00 in   Overcast
9:44 AM -0.4 °F - -2.2 °F 92% 29.83 in 10.0 mi Calm Calm - 0.00 in   Overcast
9:51 AM -0.4 °F -8.3 °F -2.2 °F 92% 29.83 in 10.0 mi SE 3.5 mph - 0.00 in   Overcast
10:01 AM -0.0 °F - -2.9 °F 88% 29.97 in 10.0 mi Calm Calm - 0.00 in   Overcast
11:01 AM 1.0 °F - -2.0 °F 87% 29.98 in 10.0 mi Calm Calm - N/A   Overcast
11:45 AM 1.4 °F -6.2 °F -2.2 °F 85% 29.85 in 10.0 mi ESE 3.5 mph - N/A   Overcast
12:01 PM 1.0 °F - -2.0 °F 87% 29.99 in 10.0 mi Calm Calm - N/A   Overcast
12:26 PM 1.4 °F -6.2 °F -0.4 °F 92% 29.86 in 10.0 mi East 3.5 mph - N/A   Overcast
1:01 PM 1.9 °F -7.6 °F -0.9 °F 88% 30.00 in 10.0 mi East 4.6 mph - N/A   Overcast
1:22 PM 3.2 °F -4.2 °F -0.4 °F 85% 29.87 in 10.0 mi East 3.5 mph - N/A   Overcast
2:01 PM 3.9 °F - -0.0 °F 84% 30.01 in 10.0 mi Calm Calm - N/A   Overcast
3:01 PM 5.0 °F -2.1 °F 1.0 °F 84% 30.01 in 10.0 mi SE 3.5 mph - N/A   Overcast
4:01 PM 6.1 °F -2.8 °F 1.9 °F 83% 30.01 in 10.0 mi East 4.6 mph - N/A   Overcast
4:14 PM 6.8 °F -2.0 °F 1.4 °F 79% 29.88 in 10.0 mi ESE 4.6 mph - N/A   Overcast
5:01 PM 6.1 °F -2.8 °F 1.9 °F 83% 30.02 in 10.0 mi East 4.6 mph - N/A   Overcast
5:58 PM 3.2 °F -4.2 °F -0.4 °F 85% 29.88 in 10.0 mi East 3.5 mph - N/A   Overcast
6:01 PM 3.9 °F - -0.0 °F 84% 30.02 in 10.0 mi Calm Calm - N/A   Overcast
7:01 PM 3.9 °F - 1.0 °F 88% 30.03 in 10.0 mi Calm Calm - 0.00 in   Overcast
8:01 PM 5.0 °F - 1.4 °F 85% 29.90 in 6.0 mi Calm Calm - 0.00 in Snow Light Snow
8:23 PM 5.0 °F - 3.2 °F 92% 29.90 in 2.0 mi Calm Calm - 0.00 in Snow Light Snow
8:43 PM 5.0 °F - 3.0 °F 92% 30.04 in 2.0 mi Calm Calm - 0.00 in   Overcast
8:54 PM 5.0 °F - 3.2 °F 92% 29.90 in 1.8 mi Calm Calm - N/A   Overcast
9:01 PM 5.0 °F - 3.2 °F 92% 29.91 in 2.0 mi Calm Calm - 0.00 in Snow Light Snow
9:10 PM 5.0 °F - 3.2 °F 92% 29.91 in 1.5 mi Calm Calm - 0.00 in Snow Light Snow
9:31 PM 5.0 °F - 3.2 °F 92% 29.91 in 1.0 mi Calm Calm - 0.00 in Snow Light Snow
9:47 PM 5.0 °F - 3.2 °F 92% 29.91 in 0.8 mi Calm Calm - 0.00 in   Overcast
10:01 PM 5.0 °F - 3.0 °F 92% 30.04 in 0.8 mi Calm Calm - 0.00 in Snow Light Snow
10:42 PM 5.0 °F - 3.2 °F 92% 29.92 in 1.2 mi Calm Calm - 0.00 in   Overcast
10:47 PM 5.0 °F - 1.4 °F 85% 29.92 in 3.0 mi Calm Calm - 0.00 in   Overcast
11:01 PM 5.0 °F - 3.0 °F 92% 30.06 in 3.0 mi Calm Calm - 0.00 in Snow Light Snow
11:06 PM 5.0 °F - 3.2 °F 92% 29.92 in 2.0 mi Calm Calm - 0.00 in   Overcast
11:14 PM 5.0 °F -2.1 °F 3.2 °F 92% 29.93 in 1.2 mi WSW 3.5 mph - 0.00 in   Overcast
11:22 PM 5.0 °F - 3.2 °F 92% 29.93 in 1.0 mi Calm Calm - 0.00 in   Overcast
11:37 PM 5.0 °F - 3.2 °F 92% 29.94 in 0.8 mi Calm Calm - 0.00 in Snow Light Snow
11:53 PM 5.0 °F - 3.2 °F 92% 29.94 in 1.2 mi Calm Calm - 0.00 in   Overcast
11:59 PM 6.8 °F - 3.2 °F 85% 29.94 in 3.0 mi Calm Calm - 0.00 in   Overcast